Weather History for Montrose, CO

Change the Weather History Date:

Monday, December 3, 2012

  Actual Average Record
Temperature  
Mean Temperature 42 °F 30 °F  
Max Temperature 55 °F 41 °F 55 °F (2012)
Min Temperature 28 °F 19 °F -2 °F (2006)
Degree Days  
Heating Degree Days 23 35  
Month to date heating degree days 59 104  
Since 1 July heating degree days 1201 1525  
Cooling Degree Days 0 0  
Month to date cooling degree days 0 0  
Year to date cooling degree days 906 643  
Moisture  
Dew Point 29 °F    
Average Humidity 58    
Maximum Humidity 78    
Minimum Humidity 38    
Precipitation  
Precipitation T in 0.02 in 0.10 in (1999)
Month to date precipitation T 0.07  
Year to date precipitation 5.48 10.72  
Sea Level Pressure  
Sea Level Pressure 30.07 in    
Wind  
Wind Speed 8 mph (SSW)    
Max Wind Speed 21 mph    
Max Gust Speed 28 mph    
Visibility 10 miles    
Events      
T = Trace of Precipitation, MM = Missing Value Source: NWS Daily Summary

Daily Weather History Graph

Daily Weather History Graph

Search for Another Location

Airport:

Trip Planner

Search our weather history database for the weather conditions in past years. The results will help you decide how hot, cold, wet, or windy it might be!

Date:

Astronomy

Dec. 03, 2012 Rise Set
Actual Time 7:12 AM MST 4:50 PM MST
Civil Twilight 6:43 AM MST 5:20 PM MST
Nautical Twilight 6:10 AM MST 5:52 PM MST
Astronomical Twilight 5:38 AM MST 6:24 PM MST
Moon 9:38 PM MST (12/3) 10:39 AM MST (12/3)
Length of Visible Light 10h 36m
Length of Day
9h 38m
Waning Gibbous, 77% of the Moon is Illuminated
Dec 3
Waning Gibbous
Dec 6
Last Quarter
Dec 13
New
Dec 19
First Quarter
Dec 28
Full

Hourly Weather History & Observations

Time (MST) Temp. Windchill Dew Point Humidity Pressure Visibility Wind Dir Wind Speed Gust Speed Precip Events Conditions
12:53 AM 53.1 °F - 30.0 °F 41% 29.82 in 10.0 mi WNW 3.5 mph - N/A   Mostly Cloudy
1:53 AM 53.1 °F - 28.9 °F 40% 29.84 in 10.0 mi SW 6.9 mph - N/A   Overcast
2:53 AM 52.0 °F - 30.0 °F 43% 29.84 in 7.0 mi WSW 18.4 mph 24.2 mph N/A   Partly Cloudy
3:53 AM 52.0 °F - 30.9 °F 45% 29.86 in 10.0 mi SW 13.8 mph 23.0 mph N/A   Overcast
4:53 AM 50.0 °F - 32.0 °F 50% 29.91 in 10.0 mi NNE 3.5 mph - N/A   Overcast
6:53 AM 42.1 °F 36.6 °F 36.0 °F 79% 30.04 in 10.0 mi NNW 9.2 mph 21.9 mph N/A   Overcast
8:53 AM 43.0 °F 37.2 °F 36.0 °F 76% 30.04 in 10.0 mi ESE 10.4 mph - 0.00 in   Overcast
9:53 AM 45.0 °F 39.3 °F 35.1 °F 68% 30.03 in 10.0 mi SE 11.5 mph - N/A   Mostly Cloudy
10:53 AM 48.9 °F - 34.0 °F 56% 30.01 in 10.0 mi SE 8.1 mph - N/A   Mostly Cloudy
12:53 PM 50.0 °F - 28.9 °F 44% 30.03 in 10.0 mi NW 9.2 mph - N/A   Clear
1:53 PM 50.0 °F - 28.0 °F 43% 30.05 in 10.0 mi WNW 8.1 mph - N/A   Clear
2:53 PM 48.9 °F - 28.9 °F 46% 30.07 in 10.0 mi NNW 9.2 mph - N/A   Partly Cloudy
3:53 PM 48.0 °F - 28.9 °F 48% 30.08 in 10.0 mi NW 4.6 mph - N/A   Clear
4:53 PM 46.9 °F - 28.0 °F 48% 30.09 in 10.0 mi Calm Calm - N/A   Clear
5:53 PM 43.0 °F 40.3 °F 28.0 °F 56% 30.14 in 10.0 mi NW 4.6 mph - N/A   Clear
6:53 PM 37.9 °F 33.5 °F 25.0 °F 60% 30.20 in 10.0 mi SSE 5.8 mph - N/A   Clear
7:53 PM 34.0 °F 28.0 °F 25.0 °F 70% 30.24 in 10.0 mi SSE 6.9 mph - N/A   Clear
8:53 PM 34.0 °F 26.0 °F 26.1 °F 73% 30.26 in 10.0 mi SSE 10.4 mph - N/A   Clear
9:53 PM 30.9 °F 22.8 °F 23.0 °F 72% 30.30 in 10.0 mi SE 9.2 mph - N/A   Clear
10:53 PM 30.0 °F 21.1 °F 24.1 °F 79% 30.30 in 10.0 mi SSE 10.4 mph - N/A   Clear
11:53 PM 28.9 °F 21.1 °F 21.9 °F 75% 30.32 in 10.0 mi SSE 8.1 mph - N/A   Clear